{"data":{"norad_id":57366,"intl_designator":"2023-099AQ","name":"STARLINK-6174","alt_names":[],"object_type":"PAYLOAD","status":"ACTIVE","operator":null,"country":"US","launch_date":"2023-07-16","launch_site_code":"AFETR","launch_vehicle":null,"mission":null,"orbit_class":"UNKNOWN","rcs_meters":null,"size_class":null,"mass_kg":null,"dimensions":null,"purposes":["comms"],"wikipedia_slug":null,"has_3d_model":false,"image_url":null,"decayed_at":null,"tle_current":{"epoch":"2026-05-25T02:04:54.323040Z","epoch_age_seconds":74325,"freshness":"FRESH","line1":"1 57366U 23099AQ  26145.08673985  .00001096  00000+0  49367-4 0  9992","line2":"2 57366  43.0024 170.1874 0001366 273.7383  86.3312 15.27572267157885","mean_motion":15.27572267,"eccentricity":0.0001366,"inclination_deg":43.0024,"raan_deg":170.1874,"arg_perigee_deg":273.7383,"mean_anomaly_deg":86.3312,"bstar":4.9367e-5,"rev_number":15788,"period_min":94.267225918419,"perigee_km":482.13501033751,"apogee_km":484.00949270503,"semimajor_km":6861.2092515213,"source":"CELESTRAK","updated_at":"2026-05-25T13:38:18.293885Z"}}}